Showing default

KUIPER-00078, 64825

Orbit data source: Space-Track

KUIPER-00078, 64825 is a payload satellite owned by Kuiper Systems (US) in LEO that was launched on Wed, 16 Jul 2025 UTC via an FALCON 9 launch vehicle from the Air Force Eastern Test Range (AFETR). Payload-class satellites include a variety of spacecraft equipped with specific instruments for various scientific and technological missions. These include communications satellites like Starlink; space stations such as the ISS; scientific satellites like the Hubble; Earth observation satellites from companies like Planet Labs, Umbra, and HawkEye 360; GPS; miniature CubeSats for education and research; and military/defense satellites.

Loading next visibility...
Identifier
64825, 2025-151K
Orbit
LEO
Country
Flag of USUS
Related business
Manufacturer
Kuiper Systems
Mission
Operational Commercial Communications
Bus & Motor
KUIPER, Unknown motor
Mass
~490 kg wet, ~490 kg dry
Launch date (UTC)
2025-07-16 (11 months ago)
Launch vehicle
FALCON 9
Launch site
Air Force Eastern Test Range (AFETR)
Object type
Payload
Rocket body
Debris
Shape & HBR
Box + 2 Pan, 3.4 m
Radar Cross Section
2.326 m², Large (>1 m²)

Expand to show TLE details & history
Last TLE update: 8 hours ago

TLE from 8 hours ago
0 KUIPER-00078
1 64825U 25151K   26166.85254553  .00001008  00000-0  16126-3 0  9995
2 64825  51.8983 221.5170 0000576  90.6270 269.4759 14.79929985 49919
Epoch: 2026-06-15T20:27Z
TLE epoch observation values (Epoch: 2026-06-15T20:27:39.933Z)
Latitude
0.00002°
Longitude
10.46764°
Altitude
630.295 km
Speed
7.544 km/s
True Right ascension
14h 46m 04s
True Declination
0° 00' 00"
Sunlit
Object was in full shadow at epoch
Visualization orbit readout
Latitude
Unknown
Longitude
Unknown
Altitude
Unknown
Speed
Unknown
Apparent Right ascension
Unknown
Apparent Declination
Unknown
Sunlit
N/A
Visualization observer readout
Local Sidereal Time
14:42:41
Azimuth
Unknown
Elevation
Unknown
Doppler factor
Unknown
Orbital elements
Apogee altitude
630.4 km
Perigee altitude
629.593 km
Semi-major axis
7,008.134 km
Eccentricity
0.00006
Inclination
51.8983°
RAAN
221.517°
Arg. of periapsis
90.627°
True anomaly
269.4693°
Mean anomaly
269.4759°
Eccentric anomaly
269.4726°
Mean motion
3.69947 °/min
Orbital period
97.31 mins
BSTAR
0.00016126
Loading maneuver chart data...
Computing Atmospheric mass density...
Loading historical data...
Loading historical data...
Loading historical data...
Loading historical data...
Loading historical data...
Loading historical data...
Loading historical data...

Documentation

Showing up to 5 results
|